This demonstration page uses our WeatherBlox Daily Observations layout. Learn more.

Left ArrowRight Arrow

38.88101, -77.10428

Hourly Observations for March 5, 2019

Temp ( °F °C ) Dew Point ( °F °C ) Humidity (%) Winds ( mph kmh ) Pressure ( in mb ) Visibility ( mi km ) Precip ( " mm )
12:52 am 00:52 Mostly Clear 30 -1.1 10 -12.2 43 43 WNW 6 9 30.13 1020 10 16.0934 0 0
1:52 am 01:52 Mostly Cloudy 29 -1.7 9 -12.8 43 43 WNW 8 13 30.13 1020 10 16.0934 0 0
2:52 am 02:52 Mostly Cloudy 29 -1.7 10 -12.2 45 45 NNW 9 15 30.12 1020 10 16.0934 0 0
3:52 am 03:52 Mostly Cloudy 28 -2.2 11 -11.7 49 49 NNW 5 7 30.12 1020 10 16.0934 0 0
4:52 am 04:52 Partly Cloudy 28 -2.2 10 -12.2 47 47 NNW 9 15 30.14 1021 10 16.0934 0 0
5:52 am 05:52 Mostly Cloudy 28 -2.2 11 -11.7 49 49 NNW 6 9 30.14 1021 10 16.0934 0 0
6:52 am 06:52 Partly Cloudy 28 -2.2 13 -10.6 53 53 N 9 15 30.14 1021 10 16.0934 0 0
7:52 am 07:52 Mostly Sunny 29 -1.7 11 -11.7 47 47 N 10 17 30.14 1021 10 16.0934 0 0
8:52 am 08:52 Mostly Sunny 31 -0.6 11 -11.7 43 43 N 6 9 30.14 1021 10 16.0934 0 0
9:52 am 09:52 Mostly Sunny 31 -0.6 11 -11.7 43 43 E 3 6 30.13 1020 10 16.0934 0 0
10:52 am 10:52 Sunny 34 1.1 13 -10.6 42 42 SE 6 9 30.1 1019 10 16.0934 0 0
11:52 am 11:52 Mostly Sunny 36 2.2 16 -8.9 44 44 S 10 17 30.09 1019 10 16.0934 0 0
12:52 pm 12:52 Mostly Sunny 37 2.8 14 -10 39 39 VRB 6 9 30.05 1018 10 16.0934 0 0
1:52 pm 13:52 Mostly Sunny 40 4.4 16 -8.9 38 38 VRB 5 7 30.01 1016 10 16.0934 0 0
2:52 pm 14:52 Mostly Sunny 40 4.4 17 -8.3 40 40 SSE 10 17 29.98 1015 10 16.0934 0 0
3:52 pm 15:52 Partly Cloudy 41 5 16 -8.9 36 36 S 7 11 29.95 1014 10 16.0934 0 0
4:52 pm 16:52 Mostly Sunny 42 5.6 11 -11.7 28 28 W 8 13 29.93 1014 10 16.0934 0 0
5:52 pm 17:52 Partly Cloudy 41 5 12 -11.1 30 30 WSW 12 19 29.94 1014 10 16.0934 0 0
6:52 pm 18:52 Mostly Cloudy 40 4.4 12 -11.1 32 32 W 8 13 29.97 1015 10 16.0934 0 0
7:17 pm 19:17 Cloudy 38 3.3 12 -11.1 34 34 NNW 22 35 30 1016 10 16.0934 0 0
7:52 pm 19:52 Mostly Cloudy 36 2.2 10 -12.2 34 34 NW 21 33 30.02 1017 10 16.0934 0 0
8:52 pm 20:52 Cloudy 33 0.6 9 -12.8 36 36 NW 23 37 30.05 1018 10 16.0934 0 0
9:52 pm 21:52 Cloudy 31 -0.6 8 -13.3 38 38 NW 17 28 30.09 1019 10 16.0934 0 0
10:52 pm 22:52 Mostly Cloudy 30 -1.1 7 -13.9 38 38 NW 22 35 30.12 1020 10 16.0934 0 0
11:52 pm 23:52 Mostly Clear 28 -2.2 7 -13.9 41 41 NNW 13 20 30.13 1020 10 16.0934 0 0

Powered by AerisWeather